IRS-P5 (CARTOSAT-1)

Last updated on Thu Jul 03 2025 00:02:29 GMT+0000 (Coordinated Universal Time)

1 28649U 05017A 25183.56235453 .00001103 00000+0 12061-3 0 9991 2 28649 97.5658 217.0806 0002433 111.8353 248.3124 14.89715960 91744
UTC large
Height (km)
Speed (km/s)
/
Latitude / Longitude
Inclination (degrees)
Orbital Period (minutes)
Azimuth
Elevation
Range (km)
Doppler Factor

Next 0 passes for location: London (51.5072 / 0.1276)

Sorry there are no passes over London.